contact:dominique.lefevre@mio.osupytheas.fr, maurice.libes@osupytheas.fr
Project:EMSO Ligure-ouest http://www.emso-fr.org/EMSO-France
Sensor Aquadopp, line 13 Serial AQD14315 
DOI : "https://doi.org/10.17882/74513; https://doi.org/10.17882/83244" 
Title:EMSO Ligure Ouest : Data ligne ALBATROSS capteur AQUADOPP - deploiement 2021
Id,Date,Profondeur,Latitude,Longitude,X_East,Y_North,Z_Up,Amplitude_X,Amplitude_Y,Amplitude_Z,Batterie,SoundSpeed,Heading,Pitch,Roll,Pressure,Temperature,Speed,Direction
, , m, degrees North, degrees East, m.s-1, m.s-1,m.s-1, 1, 1, 1, Volt, m.s-1, degree, degree, degree, dbar, degree_C, m.s-1, degree
07,2022-02-24T21:30:00,1500.0,42.79,6.0312,-0.033,0.046,0.003,54.0,54.0,54.0,12.3,1504.1,268.5,-0.9,-0.3,1472.566,13.12,0.056,324.3
07,2022-02-24T22:00:00,1500.0,42.79,6.0312,-0.038,0.053,0.012,54.0,53.0,53.0,12.2,1504.1,268.3,-0.1,-0.3,1472.587,13.12,0.065,324.4
07,2022-02-24T22:30:00,1500.0,42.79,6.0312,-0.029,0.045,0.01,53.0,54.0,54.0,12.2,1504.1,267.6,-0.1,-0.2,1472.576,13.12,0.053,327.2
07,2022-02-24T23:00:00,1500.0,42.79,6.0312,-0.036,0.033,0.002,53.0,54.0,54.0,12.3,1504.1,265.3,0.1,-0.2,1472.595,13.12,0.048,312.5
07,2022-02-24T23:30:00,1500.0,42.79,6.0312,-0.028,0.039,0.007,53.0,54.0,54.0,12.3,1504.1,266.7,-0.4,-0.2,1472.653,13.12,0.048,324.3
07,2022-02-25T00:00:00,1500.0,42.79,6.0312,-0.021,0.027,-0.003,53.0,55.0,55.0,12.3,1504.1,264.3,-0.6,0.0,1472.635,13.12,0.034,322.1
07,2022-02-25T00:30:00,1500.0,42.79,6.0312,-0.024,0.031,0.0,54.0,55.0,54.0,12.3,1504.1,265.4,-0.3,0.1,1472.597,13.12,0.039,322.3
07,2022-02-25T01:00:00,1500.0,42.79,6.0312,-0.019,0.042,0.004,52.0,54.0,54.0,12.3,1504.1,267.0,0.1,0.0,1472.658,13.12,0.046,335.7
07,2022-02-25T01:30:00,1500.0,42.79,6.0312,-0.029,0.033,0.014,55.0,54.0,54.0,12.3,1504.1,262.3,-0.7,0.1,1472.667,13.12,0.043,318.7
07,2022-02-25T02:00:00,1500.0,42.79,6.0312,-0.024,0.034,-0.006,53.0,53.0,52.0,12.3,1504.1,271.3,-0.3,-0.1,1472.645,13.12,0.041,324.8
07,2022-02-25T02:30:00,1500.0,42.79,6.0312,-0.031,0.037,-0.003,52.0,53.0,53.0,12.3,1504.1,268.2,0.0,-0.3,1472.659,13.12,0.048,320.0
07,2022-02-25T03:00:00,1500.0,42.79,6.0312,-0.041,0.021,-0.008,52.0,54.0,53.0,12.3,1504.1,263.6,-0.1,-0.1,1472.665,13.12,0.046,297.1
07,2022-02-25T03:30:00,1500.0,42.79,6.0312,-0.035,0.025,0.0,53.0,52.0,51.0,12.2,1504.1,265.6,0.0,-0.3,1472.659,13.13,0.043,305.5
07,2022-02-25T04:00:00,1500.0,42.79,6.0312,-0.03,0.02,0.009,53.0,52.0,53.0,12.2,1504.1,268.1,-0.5,-0.2,1472.69,13.12,0.036,303.7
07,2022-02-25T04:30:00,1500.0,42.79,6.0312,-0.038,0.029,0.005,52.0,53.0,52.0,12.2,1504.1,265.9,-0.2,-0.2,1472.655,13.12,0.047,307.3
07,2022-02-25T05:00:00,1500.0,42.79,6.0312,-0.033,0.025,-0.008,52.0,55.0,52.0,12.2,1504.1,268.1,-0.8,-0.1,1472.706,13.12,0.041,307.1
07,2022-02-25T05:30:00,1500.0,42.79,6.0312,-0.05,0.015,-0.012,53.0,53.0,51.0,12.3,1504.1,266.5,0.1,0.0,1472.668,13.12,0.052,286.7
07,2022-02-25T06:00:00,1500.0,42.79,6.0312,-0.036,0.015,0.0,51.0,52.0,52.0,12.3,1504.1,268.7,-0.4,-0.1,1472.655,13.12,0.039,292.6
07,2022-02-25T06:30:00,1500.0,42.79,6.0312,-0.042,0.021,0.007,52.0,52.0,52.0,12.3,1504.1,269.0,0.0,-0.2,1472.64,13.12,0.046,296.6
07,2022-02-25T07:00:00,1500.0,42.79,6.0312,-0.039,0.029,0.007,50.0,50.0,52.0,12.3,1504.1,270.9,-0.1,-0.2,1472.649,13.12,0.048,306.6
07,2022-02-25T07:30:00,1500.0,42.79,6.0312,-0.045,0.02,0.005,52.0,52.0,50.0,12.3,1504.0,270.6,-0.2,-0.1,1472.64,13.11,0.049,294.0
07,2022-02-25T08:00:00,1500.0,42.79,6.0312,-0.044,0.027,0.017,51.0,51.0,50.0,12.2,1504.1,274.8,-0.3,-0.3,1472.598,13.12,0.051,301.5
07,2022-02-25T08:30:00,1500.0,42.79,6.0312,-0.036,0.03,-0.004,50.0,51.0,50.0,12.2,1504.1,275.4,-0.1,-0.1,1472.641,13.12,0.046,309.8
07,2022-02-25T09:00:00,1500.0,42.79,6.0312,-0.038,0.031,0.021,50.0,51.0,50.0,12.2,1504.1,276.3,-0.1,0.0,1472.599,13.12,0.049,309.2
07,2022-02-25T09:30:00,1500.0,42.79,6.0312,-0.028,0.027,0.002,51.0,51.0,54.0,12.3,1504.1,275.8,0.3,0.1,1472.576,13.12,0.038,314.0
07,2022-02-25T10:00:00,1500.0,42.79,6.0312,-0.04,0.024,-0.005,49.0,51.0,50.0,12.3,1504.1,275.5,-0.8,-0.2,1472.611,13.12,0.046,301.0
07,2022-02-25T10:30:00,1500.0,42.79,6.0312,-0.031,0.027,0.007,49.0,49.0,49.0,12.2,1504.1,275.4,-0.5,0.0,1472.611,13.12,0.041,311.1
07,2022-02-25T11:00:00,1500.0,42.79,6.0312,-0.03,0.024,0.006,51.0,52.0,51.0,12.3,1504.1,273.0,-0.5,-0.3,1472.603,13.12,0.038,308.7
07,2022-02-25T11:30:00,1500.0,42.79,6.0312,-0.023,0.01,0.008,50.0,51.0,50.0,12.3,1504.1,268.5,-0.3,-0.3,1472.616,13.12,0.025,293.5
07,2022-02-25T12:00:00,1500.0,42.79,6.0312,-0.034,0.014,-0.003,48.0,49.0,49.0,12.2,1504.1,266.2,0.1,-0.2,1472.647,13.12,0.036,292.4
07,2022-02-25T12:30:00,1500.0,42.79,6.0312,-0.042,0.02,-0.004,51.0,50.0,50.0,12.3,1504.1,268.8,-0.4,0.1,1472.581,13.12,0.046,295.5
07,2022-02-25T13:00:00,1500.0,42.79,6.0312,-0.03,0.022,0.003,51.0,48.0,50.0,12.2,1504.1,266.9,-0.6,-0.1,1472.61,13.12,0.037,306.3
07,2022-02-25T13:30:00,1500.0,42.79,6.0312,-0.038,0.035,0.002,49.0,50.0,50.0,12.2,1504.0,268.3,-0.1,0.0,1472.606,13.11,0.051,312.6
07,2022-02-25T14:00:00,1500.0,42.79,6.0312,-0.037,0.024,-0.005,52.0,49.0,49.0,12.3,1504.0,267.8,-0.2,-0.1,1472.593,13.11,0.044,303.0
07,2022-02-25T14:30:00,1500.0,42.79,6.0312,-0.036,0.029,-0.018,48.0,51.0,50.0,12.2,1504.0,266.2,-0.3,-0.2,1472.636,13.11,0.046,308.9
07,2022-02-25T15:00:00,1500.0,42.79,6.0312,-0.026,0.033,0.015,49.0,50.0,49.0,12.3,1504.0,271.2,-0.1,-0.3,1472.571,13.11,0.042,321.8
07,2022-02-25T15:30:00,1500.0,42.79,6.0312,-0.038,0.024,-0.007,49.0,49.0,50.0,12.3,1504.0,264.9,-0.4,-0.4,1472.608,13.11,0.044,302.3
07,2022-02-25T16:00:00,1500.0,42.79,6.0312,-0.032,0.03,0.009,50.0,50.0,50.0,12.2,1504.0,261.8,-0.1,0.0,1472.586,13.11,0.043,313.1
07,2022-02-25T16:30:00,1500.0,42.79,6.0312,-0.031,0.026,-0.005,50.0,51.0,51.0,12.3,1504.0,256.0,0.1,-0.2,1472.602,13.11,0.04,310.0
07,2022-02-25T17:00:00,1500.0,42.79,6.0312,-0.044,0.012,0.0,50.0,51.0,50.0,12.3,1504.0,249.9,-0.2,-0.1,1472.544,13.11,0.045,285.3
07,2022-02-25T17:30:00,1500.0,42.79,6.0312,-0.036,0.008,0.0,48.0,51.0,49.0,12.2,1504.1,242.9,-0.6,-0.1,1472.553,13.12,0.036,282.5
07,2022-02-25T18:00:00,1500.0,42.79,6.0312,-0.04,0.005,0.009,49.0,51.0,49.0,12.3,1504.1,246.4,-0.4,-0.1,1472.549,13.12,0.04,277.1
07,2022-02-25T18:30:00,1500.0,42.79,6.0312,-0.031,0.006,0.004,51.0,49.0,51.0,12.3,1504.1,244.6,0.2,-0.2,1472.534,13.12,0.031,281.0
07,2022-02-25T19:00:00,1500.0,42.79,6.0312,-0.044,0.018,0.004,50.0,51.0,51.0,12.3,1504.1,245.6,0.2,0.0,1472.536,13.12,0.047,292.2
07,2022-02-25T19:30:00,1500.0,42.79,6.0312,-0.05,0.01,0.005,50.0,51.0,53.0,12.2,1504.1,249.9,-0.4,-0.3,1472.516,13.12,0.05,281.3
07,2022-02-25T20:00:00,1500.0,42.79,6.0312,-0.047,0.006,-0.015,49.0,51.0,50.0,12.3,1504.1,246.8,0.3,-0.1,1472.492,13.12,0.047,277.3
07,2022-02-25T20:30:00,1500.0,42.79,6.0312,-0.057,0.014,0.007,49.0,54.0,50.0,12.3,1504.1,248.7,-0.1,-0.3,1472.47,13.12,0.058,283.8
07,2022-02-25T21:00:00,1500.0,42.79,6.0312,-0.046,0.016,-0.005,49.0,51.0,50.0,12.3,1504.1,251.4,-0.1,-0.3,1472.503,13.12,0.048,289.2
